Meteo Giornale » Osservazioni meteo Panama » Marcos A Gelabert
ore: 16:00 - Osservazioni Meteo Marcos A Gelabert
Lat. 8° 59' N Lon. 79° 31' W Alt. 13 metri s.l.m.
31 °C
Nuvoloso
Temp. 24 Ore
26 °C
32 °C
Nord/NOvest
18.5 Km/h
Dew point 25 °C
Umidità 70 %
Visibilità 10 Km
Il sole sorge alle ore 06:09
Il sole tramonta alle ore 18:26
| Data e Ora | Cielo e Fenomeni | T °C | DP °C | Um. % | Pres. hPa | Vis. km | Vento km/h | |
|---|---|---|---|---|---|---|---|---|
| Oggi h: 16:00 | Nuvoloso | 31 | 25 | 70 | 1009 | 10 | N/NO 18.5 | |
| Oggi h: 15:00 | Nuvoloso | 32 | 25 | 66 | 1009 | 10 | NO 14.8 | |
| Oggi h: 14:00 | Nuvoloso | 32 | 25 | 66 | 1010 | 10 | NO 18.5 | |
| Oggi h: 13:00 | Nuvoloso | 32 | 25 | 66 | 1011 | 10 | O 9.3 | |
| Oggi h: 12:00 | Pioggia nelle vicinanze | 31 | 26 | 74 | 1012 | 8 | N/NO 24 | |
| Oggi h: 11:00 | Nuvoloso | 30 | 25 | 74 | 1013 | 10 | O/NO 9.3 | |
| Oggi h: 10:00 | Nuvoloso | 29 | 25 | 79 | 1013 | 10 | NO 9.3 | |
| Oggi h: 09:00 | Nuvoloso | 28 | 26 | 88 | 1012 | 10 | O/NO 9.3 | |
| Oggi h: 08:00 | Nuvoloso | 27 | 26 | 94 | 1012 | 10 | N 3.7 | |
| Oggi h: 07:00 | Nuvoloso | 26 | 25 | 94 | 1011 | 10 | N 3.7 | |
| Oggi h: 06:00 | Nuvoloso | 26 | 25 | 94 | 1011 | 10 | N 0 | |
| Oggi h: 05:00 | Molto Nuvoloso | 26 | 25 | 94 | 1011 | 11 | N 0 | |
| Oggi h: 04:00 | Molto Nuvoloso | 26 | 25 | 94 | 1011 | 11 | N 1.8 | |
| Oggi h: 03:00 | Molto Nuvoloso | 26 | 25 | 94 | 1011 | 11 | N 3.7 | |
| Oggi h: 02:00 | Coperto | 26 | 25 | 94 | 1011 | 11 | N 1.8 | |
| Oggi h: 01:00 | Molto Nuvoloso | 26 | 25 | 94 | 1011 | 11 | N 5.5 | |
| Oggi h: 00:00 | Molto Nuvoloso | 26 | 25 | 94 | 1012 | 11 | N 0 | |
| Ieri h: 23:00 | Molto Nuvoloso | 27 | 25 | 88 | 1012 | 10 | N 3.7 | |
| Ieri h: 22:00 | Nuvoloso | 27 | 26 | 94 | 1012 | 10 | NO 7.4 | |
| Ieri h: 21:00 | Nuvoloso | 27 | 26 | 94 | 1011 | 10 | N/NO 7.4 | |
| Ieri h: 20:00 | Nuvoloso | 27 | 26 | 94 | 1010 | 10 | N/NO 9.3 | |
| Ieri h: 19:00 | Nuvoloso | 27 | 25 | 88 | 1010 | 10 | N 3.7 | |
| Ieri h: 18:00 | Molto Nuvoloso | 27 | 25 | 88 | 1010 | 10 | N 5.5 | |



